Location: Heidgraben
(53.7081°N, 9.6576°E)
Time: 09:16:41
(UTC+00:00)

NOSS 3-3 (A) - Pass Details

Date: 05 July 2020
Orbit: 825 x 1387 km, 63.4° (Epoch: 03 August)

Event Time Altitude Azimuth Distance (km) Brightness Sun altitude
Rises 22:17:35 0° 230° (SW) 3,466 6.7 -12.2°
Reaches altitude 10° 22:19:56 10° 231° (SW) 2,581 6.0 -12.3°
Maximum altitude 22:25:58 82° 320° (NW) 1,001 4.1 -12.5°
Drops below altitude 10° 22:32:55 10° 49° (NE) 2,960 6.9 -12.8°
Sets 22:35:47 0° 50° (NE) 4,008 7.6 -12.9°
